Weather observations for the past three days for
St. Mary's, St. Mary's Airport
Metric (Imperial)
Date Time (akdt) Wind (kph) Vis. (km) Weather Sky Cond. Temperature (ºC) Relative Humidity Wind Chill (°C) Heat Index (°C) Pressure Precipitation (cm)
Air Dwpt 6 hour altimeter (cm) sea level (mb) 1 hr 3 hr 6 hr
Max. Min.
21 08:56 N 13 16.09 Overcast OVC065 12.2 10.6 90% 76.2 1016.6
21 07:56 N 11 16.09 Overcast OVC060 11.7 10 89% 76.2 1016.3
21 06:56 N 11 16.09 Light Rain OVC060 11.1 9.4 89% 76.17 1016.2
21 05:56 N 9 16.09 Overcast OVC060 10.6 9.4 92% 76.17 1016.0
21 04:56 NE 9 16.09 Light Rain OVC070 10.6 9.4 92% 76.15 1016.0
21 03:56 N 9 16.09 Light Rain FEW050 BKN070 OVC090 11.1 10 17.2 10.6 93% 76.17 1016.0
21 02:56 Calm 16.09 Overcast OVC075 11.1 8.9 86% 76.17 1016.2
21 01:56 NW 9 16.09 Mostly Cloudy BKN090 11.7 8.9 83% 76.15 1016.0
21 00:56 NE 7 16.09 A Few Clouds FEW042 12.2 8.9 80% 76.17 1016.2
20 23:56 N 11 16.09 Fair CLR 14.4 8.9 70% 76.15 1015.9
20 22:56 N 13 16.09 Fair CLR 16.1 9.4 65% 76.12 1015.4
20 21:56 N 15 16.09 Fair CLR 17.2 9.4 18.3 16.7 60% 76.12 1015.5
20 20:56 NW 13 16.09 Fair CLR 17.8 8.3 54% 76.15 1015.7
20 19:56 NW 15 G 30 16.09 Partly Cloudy SCT046 17.8 8.3 54% 76.12 1015.5
20 18:56 W 17 12.87 A Few Clouds FEW047 17.8 7.8 52% 76.12 1015.6
20 17:56 SW 15 16.09 Partly Cloudy SCT047 17.8 7.8 52% 76.15 1015.9
20 16:56 Vrbl 6 16.09 A Few Clouds FEW065 17.2 8.3 56% 76.17 1016.2
20 15:56 Calm 16.09 Mostly Cloudy SCT039 BKN055 17.2 7.8 17.2 11.1 54% 76.23 1016.7
20 14:56 Calm 16.09 Mostly Cloudy SCT048 BKN055 16.7 8.3 58% 76.25 1017.1
20 13:56 Calm 16.09 Overcast OVC048 15 8.3 64% 76.28 1017.4
20 12:56 Calm 16.09 Overcast FEW030 BKN060 OVC110 14.4 8.9 70% 76.28 1017.5
20 11:56 Calm 16.09 Overcast FEW045 OVC100 13.3 9.4 77% 76.28 1017.7
20 10:56 Calm 16.09 Overcast BKN090 OVC110 12.2 10.6 90% 76.3 1018.0
20 09:56 NE 6 16.09 Overcast BKN065 OVC100 11.1 10 11.7 8.9 93% 76.3 1017.9 0.71
20 08:56 Calm 16.09 Overcast BKN070 OVC100 10.6 10 96% 76.3 1018.0 0.03
20 07:56 Calm 16.09 Overcast OVC065 9.4 8.9 97% 76.3 1018.0
20 06:56 N 6 12.87 Light Rain OVC055 9.4 8.9 97% 76.3 1017.9 0.15 0.69
20 05:56 Calm 11.27 Light Rain SCT031 OVC050 10.6 9.4 92% 76.3 1017.8 0.13
20 04:56 Calm 3.22 Rain Fog/Mist OVC041 10.6 9.4 92% 76.28 1017.7 0.41
20 03:56 Calm 14.48 Overcast BKN038 OVC075 11.1 8.9 13.3 10 86% 76.28 1017.7
20 02:56 Calm 16.09 Overcast BKN045 OVC090 11.1 8.9 86% 76.28 1017.6
20 01:56 Calm 16.09 Mostly Cloudy SCT041 BKN065 10.6 8.3 86% 76.28 1017.5
20 00:56 Calm 16.09 Mostly Cloudy BKN060 11.1 8.9 86% 76.25 1017.4
19 23:56 Calm 16.09 Overcast BKN050 BKN070 OVC110 11.7 8.9 83% 76.25 1017.3
19 22:56 Calm 16.09 Overcast OVC048 12.8 8.9 77% 76.23 1016.8
19 21:56 SE 7 16.09 Overcast FEW041 BKN055 OVC110 13.3 8.9 13.9 11.7 75% 76.2 1016.7
19 20:56 SE 7 16.09 Overcast SCT043 OVC050 13.3 8.3 72% 76.2 1016.5
19 19:56 Calm 16.09 Overcast BKN042 BKN055 OVC110 13.3 8.9 75% 76.2 1016.5
19 18:56 E 11 16.09 Overcast OVC034 12.8 8.9 77% 76.2 1016.6
19 17:56 SE 9 16.09 Overcast FEW027 OVC040 13.9 8.9 72% 76.17 1016.3
19 16:56 SE 9 16.09 Overcast FEW029 BKN039 OVC047 13.9 7.8 67% 76.17 1016.3
19 15:56 S 11 16.09 Overcast FEW025 OVC031 11.7 8.9 13.3 10 83% 76.17 1016.4 0.03
19 14:56 SE 13 16.09 Overcast FEW019 SCT030 OVC044 13.3 8.9 75% 76.15 1016.0
19 13:56 S 9 16.09 Overcast FEW007 SCT016 OVC029 12.2 10 87% 76.15 1016.0
19 12:56 S 17 16.09 Light Rain FEW010 OVC018 11.7 9.4 86% 76.12 1015.7 0.03 0.03
19 11:56 S 9 16.09 Overcast FEW019 BKN037 OVC045 11.1 8.9 86% 76.1 1015.3
19 10:56 SE 9 16.09 Light Rain FEW010 SCT043 OVC055 11.7 8.9 83% 76.07 1015.0
19 09:56 SE 7 16.09 Light Rain FEW010 BKN023 OVC035 11.1 9.4 11.7 10 89% 76.07 1014.7 0.03
19 08:56 SE 6 16.09 Light Rain FEW006 BKN030 OVC037 11.1 10 93% 76.05 1014.4
19 07:56 Calm 16.09 Overcast OVC035 10 8.9 93% 76.02 1014.1
19 06:56 S 6 16.09 Overcast OVC025 10.6 9.4 92% 76.02 1014.0 0.03
19 05:56 SW 6 16.09 Overcast FEW010 BKN030 OVC046 10 9.4 96% 76 1013.9
19 04:56 SW 9 16.09 Overcast BKN010 OVC015 10 9.4 96% 9 76 1013.7 0.03
19 03:56 Calm 16.09 Light Rain BKN049 OVC060 11.1 10 13.9 10 93% 75.97 1013.4 0.28
19 02:56 Calm 14.48 Light Rain FEW016 SCT037 OVC055 10.6 10 96% 75.97 1013.4 0.05
19 01:56 Calm 14.48 Light Rain BKN041 OVC049 11.1 10 93% 75.97 1013.4 0.1
19 00:56 SE 7 16.09 Light Rain BKN040 OVC055 10.6 10 96% 75.97 1013.6 0.05 0.13
18 23:56 SE 9 16.09 Light Rain OVC032 11.1 10 93% 75.95 1013.3 0.05
18 22:56 SE 6 16.09 Light Rain OVC032 11.7 10 89% 75.95 1013.2 0.03
18 21:56 W 13 16.09 Light Rain OVC040 14.4 7.2 17.8 14.4 62% 75.92 1012.7
18 20:56 SW 15 16.09 Mostly Cloudy FEW042 SCT075 BKN090 15.6 6.7 56% 75.9 1012.5
18 19:56 SW 24 G 33 16.09 Mostly Cloudy FEW042 BKN070 17.2 7.2 52% 75.9 1012.3
18 18:56 SW 24 16.09 A Few Clouds FEW043 17.2 6.7 50% 75.9 1012.3
18 17:56 SW 26 G 37 16.09 A Few Clouds FEW043 17.2 6.1 48% 75.9 1012.4
18 16:56 SW 20 14.48 A Few Clouds FEW043 17.2 6.1 48% 75.9 1012.6
18 15:56 SW 28 14.48 Fair CLR 17.8 5.6 17.8 13.3 45% 75.92 1012.7
18 14:56 SW 22 14.48 Mostly Cloudy BKN047 17.2 2.2 37% 75.92 1012.6
18 13:56 S 20 16.09 Mostly Cloudy SCT047 BKN090 17.2 3.9 41% 75.92 1012.6
18 12:56 SW 15 6.44 Mostly Cloudy with Haze BKN047 BKN055 16.7 6.1 50% 75.9 1012.6
18 11:56 SW 7 16.09 Mostly Cloudy FEW047 BKN070 15 5 51% 75.92 1012.6
18 10:56 S 7 16.09 Mostly Cloudy BKN065 13.3 5 57% 75.92 1012.8
18 09:56 W 7 16.09 Fair CLR 13.3 3.9 13.3 6.1 53% 75.92 1012.7
Date Time (akdt) Wind (kph) Vis. (km) Weather Sky Cond. Air Dwpt Max. Min. Relative Humidity Wind Chill (°C) Heat Index (°C) altimeter (cm) sea level (mb) 1 hr 3 hr 6 hr
6 hour
Temperature (ºC) Pressure Precipitation (cm)